Location: Germanns
(48.6667°N, 15.4500°E)
Time: 19:49:39
(UTC+00:00)

Daily predictions for brighter satellites

Satellite Brightness Start Highest point End
(mag) Time Altitude Azimuth Time Altitude Azimuth Time Altitude Azimuth
CZ-4C R/B 3.8 18:50:49 10° NW 18:57:05 38° NNE 19:04:24 10° E
Gbstr 26 Del rocket 4.5 18:52:52 10° WSW 19:00:57 88° SSE 19:08:02 10° ENE
Sich 1 3.6 18:57:04 10° N 19:01:10 40° ENE 19:05:17 10° SE
USA 306 4.1 19:00:25 10° WNW 19:04:28 40° N 19:08:30 10° ENE
MOS 1 4.4 19:03:09 10° SSE 19:08:49 82° WSW 19:14:31 10° NNW
Cosmos 1782 4.3 19:08:05 10° SE 19:10:58 19° E 19:13:51 10° NE
MOS 1-B Rocket 4.5 19:03:45 10° NNE 19:11:38 86° ESE 19:18:15 10° SSW
ERS-1 Rocket 4.5 19:11:20 10° ESE 19:15:08 22° ENE 19:18:57 10° N
SPOT 5 4.5 19:13:58 10° ESE 19:17:54 23° ENE 19:21:58 10° N
SJ-6B 4.3 19:16:29 10° SSW 19:20:03 36° W 19:23:44 10° NNW
Cosmos 1151 Rocket 4.0 19:21:18 10° SSE 19:25:03 29° E 19:28:51 10° NNE
Cosmos 2278 Rocket 3.9 19:23:59 11° ESE 19:26:21 14° E 19:29:14 10° ENE
Terra 3.6 19:23:45 10° ESE 19:27:02 19° ENE 19:30:21 10° NNE
USA 290 2.3 19:24:17 10° NNW 19:27:32 64° ENE 19:30:10 14° SE
Cosmos 1602 4.3 19:24:24 10° N 19:28:04 40° ENE 19:31:09 14° SE
Meteor 1-25 Rocket 4.4 19:22:49 10° N 19:28:40 70° ENE 19:34:29 10° SSE
Ariane Rocket 3.7 19:24:44 10° S 19:29:41 55° W 19:34:41 10° NNW
USA 307 4.1 19:25:49 10° WNW 19:29:52 41° N 19:33:57 10° ENE
CREW DRAGON DEMO-1 DEB 3.7 19:28:18 10° WNW 19:30:50 40° N 19:33:23 10° ENE
Cosmos 2263 Rocket 4.4 19:28:48 10° WSW 19:33:39 30° NW 19:38:32 10° NNE
CZ-2C R/B 4.0 19:29:57 10° NNE 19:34:16 45° E 19:38:36 10° S
Cosmos 1606 3.6 19:32:05 10° SSW 19:35:46 51° WNW 19:39:29 10° N
Cosmos 1844 Rocket 2.7 19:32:29 10° SSW 19:38:04 87° ESE 19:43:42 10° NNE
SPOT 1/Viking Rocket 3.7 19:36:09 12° SSE 19:40:52 64° ENE 19:46:01 10° N
MetOp-B 4.1 19:36:53 10° SSE 19:42:09 81° ENE 19:47:32 10° NNW
SL-4 R/B 3.5 19:38:21 10° W 19:42:12 30° SW 19:45:35 13° SSE
Cosmos 1805 Rocket 4.0 19:38:11 10° NNW 19:42:28 60° W 19:46:45 10° S
USA 308 4.0 19:39:19 10° WNW 19:43:26 43° N 19:47:33 10° E
X-37B 1.2 19:43:12 10° WSW 19:46:14 40° S 19:47:53 22° SE
ARIANE 5 R/B 3.0 19:43:07 16° SE 19:46:16 47° ENE 19:50:26 10° N
Cosmos 1354 Rocket 4.1 19:41:34 10° S 19:46:37 53° ESE 19:51:44 10° NNE
Cosmos 1633 Rocket 3.1 19:46:37 10° N 19:51:00 65° ENE 19:54:17 17° SSE
Cosmos 1745 Rocket 4.3 19:45:15 10° NNW 19:51:25 67° W 19:57:29 10° S
Cosmos 1709 Rocket 3.9 19:48:11 10° N 19:54:20 80° E 19:59:46 13° SSE
SPOT 3 Rocket 3.9 19:49:20 10° S 19:54:27 64° WSW 19:59:35 10° NNW
Cosmos 1437 3.5 19:54:17 25° ESE 19:54:51 27° E 19:57:21 10° NNE
Landsat 7 4.1 19:52:36 11° S 19:57:14 67° WSW 20:02:00 10° NNW
Cosmos 1812 3.8 19:56:30 21° SE 19:57:56 27° E 20:01:14 10° NNE
Cosmos 1844 3.8 19:52:34 10° SSW 19:58:18 82° WNW 20:04:01 10° NNE
Cosmos 968 Rocket 4.3 19:53:57 10° SW 19:59:05 54° WNW 20:04:14 10° NNE
BREEZE-M DEB (TANK) 4.4 19:55:42 10° W 19:59:58 51° SSW 20:06:54 16° SE
Cosmos 1470 Rocket 4.0 19:55:47 10° N 20:00:09 48° ENE 20:02:47 22° SE
ATLAS 5 CENTAUR R/B 2.4 19:55:22 10° NW 20:00:54 76° SW 20:05:41 19° SSE
NOSS 3-3 (A) 4.1 19:57:43 10° SSW 20:03:10 47° ESE 20:09:21 10° NE
Cosmos 1328 Rocket 3.7 19:59:49 16° S 20:03:13 57° E 20:07:34 10° NNE
NOSS 3-3 (C) 4.1 19:57:50 10° SSW 20:03:17 46° ESE 20:09:27 10° NE
Akebono 4.3 20:01:53 10° NNW 20:04:26 51° ENE 20:04:50 42° ESE
ATLAS 2AS CENTAUR R/B 4.0 19:59:02 10° NW 20:05:57 36° NNE 20:12:24 10° E
Meteor 1-26 Rocket 4.2 20:03:18 10° S 20:09:01 82° E 20:14:36 10° NNE
CARTOSAT-1 3.5 20:07:01 22° SSE 20:09:43 73° ENE 20:14:03 10° N
Cosmos 1833 Rocket 3.0 20:04:50 10° NNW 20:10:25 55° ENE 20:14:00 22° SE
Cosmos 2315 Rocket 4.0 20:05:17 10° S 20:11:39 81° E 20:18:04 10° N
CRYOSAT 2 4.4 20:07:54 14° S 20:12:04 82° W 20:17:00 10° N
Meteor 1-14 Rocket 4.3 20:06:14 10° N 20:12:11 77° ENE 20:16:14 21° SSE
BREEZE-M R/B 1.5 20:11:50 10° WSW 20:14:17 68° SSE 20:15:12 33° E
Cosmos 1933 Rocket 4.0 20:10:32 10° N 20:14:42 44° ENE 20:16:40 27° SE
Cosmos 1666 3.4 20:12:37 10° N 20:16:07 36° ENE 20:17:20 28° ESE
Cosmos 1666 Rocket 4.0 20:12:14 10° NNW 20:16:35 58° W 20:19:58 16° S
USA 215 4.3 20:11:17 10° ENE 20:17:24 45° N 20:23:32 10° WNW
Cosmos 1538 Rocket 4.4 20:15:19 10° NNW 20:20:37 55° ENE 20:23:35 25° SE
USA 245 3.3 20:23:48 29° SW 20:24:19 33° W 20:26:25 10° NNW
Iridium 4 Rocket 4.0 20:22:02 24° SSE 20:25:22 54° E 20:31:07 10° N
USA 305 3.4 20:21:30 10° WNW 20:25:42 56° NNE 20:28:37 19° E
Cosmos 1242 Rocket 4.0 20:25:08 10° SW 20:28:30 37° WNW 20:31:50 10° N
BREEZE M DEB (TANK) 1.3 20:29:48 10° WNW 20:33:49 81° SSW 20:34:07 64° ESE
Cosmos 773 Rocket 4.2 20:28:43 10° NNW 20:34:00 69° WSW 20:37:01 26° S
Resurs 01 Rocket 3.7 20:30:49 10° SW 20:34:19 23° W 20:37:52 10° NW
Spot 2 Rocket 3.9 20:34:12 20° S 20:37:37 56° W 20:42:35 10° NNW
SJ 16-02 1.9 20:38:19 34° SE 20:39:13 38° ESE 20:43:20 10° NE
COSMOS 2406 3.2 20:35:08 10° NNW 20:40:50 87° ENE 20:43:43 31° SSE
Cosmos 2228 Rocket 3.8 20:40:06 32° ESE 20:41:02 35° E 20:45:06 10° NNE
Cosmos 2082 Rocket 2.6 20:38:09 10° NNW 20:43:39 52° NE 20:46:29 27° ESE
Meteor 2-6 Rocket 4.1 20:41:14 25° S 20:44:27 74° E 20:49:57 10° NNE
USA 306 3.1 20:40:38 10° WNW 20:44:53 66° NNE 20:47:01 28° E
Cosmos 1500 3.8 20:41:55 10° NNW 20:45:34 49° W 20:47:10 28° SSW
CZ-4C R/B 3.0 20:39:11 10° NW 20:46:22 82° SW 20:51:18 27° SSE
Cosmos 1782 4.1 20:43:16 10° SW 20:47:00 39° WNW 20:50:46 10° N
ERS-1 Rocket 3.3 20:50:52 27° S 20:53:32 61° W 20:58:31 10° NNW
deb Kosmos-1763 3.8 20:51:15 10° NNW 20:54:48 86° ENE 20:55:19 63° SSE
SL-24 DEB 4.2 20:53:26 40° SSE 20:54:57 65° E 20:59:32 10° N
SPOT 5 3.3 20:52:52 27° S 20:55:31 60° W 21:00:44 10° NNW
H-2A R/B 3.4 20:52:15 10° NNE 20:56:29 76° ESE 20:57:49 42° S
Meteor 1-11 Rocket 3.8 20:54:04 10° N 21:00:05 74° ENE 21:02:44 35° SSE
Cosmos 1271 Rocket 2.7 21:00:22 52° SSE 21:01:12 72° E 21:05:12 10° NNE
Cosmos 1777 Rocket 4.1 20:58:39 16° SSW 21:02:54 76° WNW 21:08:09 10° NNE
Terra 2.0 21:02:22 35° S 21:04:19 67° WSW 21:09:05 10° NNW
CREW DRAGON DEMO-1 DEB 3.6 21:02:44 10° WNW 21:04:38 41° WNW 21:04:38 41° WNW
Cosmos 2278 Rocket 2.1 21:05:44 22° SSW 21:09:32 84° ESE 21:15:14 10° NNE
USA 307 2.9 21:05:56 10° WNW 21:10:14 83° NNE 21:11:26 47° ESE
Cosmos 1340 Rocket 3.4 21:09:39 10° N 21:13:34 42° ENE 21:14:05 40° E
Cosmos 923 Rocket 4.1 21:08:31 10° NNW 21:13:46 68° ENE 21:15:32 41° SE
Cosmos 1898 Rocket 4.3 21:17:25 32° ESE 21:17:49 32° ESE 21:22:31 10° NE
Cosmos 2327 Rocket 4.5 21:11:48 10° N 21:18:15 85° E 21:21:03 37° SSE
Cosmos 1544 3.3 21:17:25 10° N 21:20:56 55° ENE 21:20:56 55° ENE
Cosmos 2369 Rocket 4.3 21:21:42 12° E 21:21:42 12° E 21:23:14 10° ENE
X-37B 3.4 21:20:01 10° WSW 21:20:09 11° WSW 21:20:09 11° WSW
Cosmos 2084 3.9 21:18:37 10° SW 21:22:44 59° NW 21:26:58 10° NE
Cosmos 1869 Rocket 3.4 21:18:43 10° N 21:23:04 85° W 21:23:54 58° S
Cosmos 1536 2.7 21:19:15 10° N 21:23:19 85° E 21:23:48 69° SSE
USA 308 2.8 21:19:25 10° WNW 21:23:43 85° SSW 21:24:24 62° SE
Meteor 1-10 Rocket 4.4 21:22:59 27° SSW 21:26:04 69° WNW 21:31:44 10° N
Cosmos 2154 Rocket 4.0 21:24:01 10° NNW 21:30:21 77° W 21:33:03 37° S
Cosmos 1943 Rocket 3.3 21:30:26 26° ESE 21:30:27 26° ESE 21:35:02 10° NE
Cosmos 1975 4.4 21:32:55 10° NNE 21:36:11 24° ENE 21:36:27 24° ENE
ALOS 2 3.5 21:38:42 33° E 21:39:28 36° ENE 21:43:29 10° N
Cosmos 44 3.9 21:34:58 10° NNW 21:40:22 58° NE 21:42:24 35° ESE
Cosmos 990 Rocket 4.0 21:40:01 52° SSE 21:40:55 60° ESE 21:46:06 10° NNE
Cosmos 1707 Rocket 3.5 21:42:54 64° ESE 21:43:11 66° E 21:47:33 10° NNE
NOSS 3-4 (A) 3.9 21:37:05 10° NW 21:44:01 69° SW 21:47:02 39° SSE
NOSS 3-4 (C) 3.9 21:37:12 10° NW 21:44:07 69° SW 21:47:09 39° SSE
ATLAS 5 CENTAUR R/B 4.3 21:41:22 10° WNW 21:45:04 17° WSW 21:47:13 15° SW
Cosmos 962 Rocket 4.4 21:43:39 10° N 21:49:49 90° SE 21:51:48 46° S
Cosmos 2112 Rocket 4.0 21:47:13 10° NNW 21:52:36 90° WSW 21:53:50 55° SSE
Cosmos 1833 Rocket 4.0 21:49:18 10° NW 21:54:01 28° WSW 21:55:42 24° SW
Nadezhda 1 Rocket 4.4 21:51:52 29° SSW 21:55:06 61° WNW 22:01:19 10° N
SL-24 R/B - RUBIN 2 4.0 21:49:42 10° NW 21:55:19 74° NE 21:56:38 50° ESE
Cosmos 1238 Rocket 3.9 21:49:45 10° N 21:56:13 75° E 21:57:51 49° SSE
Cosmos 1743 2.7 21:53:09 10° NNW 21:56:52 73° WNW 21:56:52 73° WNW
ATLAS 2AS CENTAUR R/B 2.7 21:50:19 10° NW 21:57:47 87° SW 22:00:32 41° SE
SeaSat 1 4.1 21:55:36 10° ENE 21:58:33 20° E 21:58:33 20° E
USA 215 3.4 21:55:02 19° ESE 21:59:57 72° NNE 22:06:29 10° NW
BREEZE-M DEB (TANK) 3.6 21:58:33 10° W 22:03:55 45° N 22:04:41 35° NE
Cosmos 2297 3.7 22:03:58 53° SSE 22:04:57 62° ESE 22:10:34 10° NNE
USA 305 3.8 22:01:33 10° WNW 22:04:41 38° WSW 22:04:41 38° WSW
Cosmos 2181 Rocket 3.9 22:07:22 49° SSE 22:09:03 71° E 22:15:11 10° NNE
Cosmos 1733 Rocket 3.0 22:11:36 10° NNW 22:15:56 72° W 22:16:02 71° WSW
SJ 16-02 3.2 22:15:14 16° WSW 22:17:54 27° WNW 22:21:43 10° N
Cosmos 1680 Rocket 4.0 22:15:35 10° NNW 22:20:41 47° WSW 22:21:27 44° SW
Cosmos 2341 Rocket 4.2 22:14:48 10° NNW 22:21:07 63° W 22:23:08 43° SSW
Cosmos 2366 rocket 3.9 22:16:12 10° N 22:22:25 90° ENE 22:24:07 51° S
USA 306 4.4 22:20:47 10° WNW 22:23:05 25° W 22:23:05 25° W
Cosmos 1937 Rocket 3.3 22:24:06 66° S 22:24:50 83° ESE 22:30:02 10° NNE
Cosmos 1818 3.5 22:20:53 10° NW 22:26:25 85° NE 22:27:40 55° SE
Thor Agena Rocket 4.0 22:22:18 10° NNE 22:27:18 44° E 22:27:48 43° ESE
Cosmos 2082 Rocket 3.3 22:22:42 10° NW 22:27:27 29° WSW 22:28:19 28° WSW
Cosmos 1908 Rocket 3.8 22:23:15 10° N 22:27:42 59° ENE 22:27:56 58° E
Cosmos 967 Rocket 4.3 22:27:43 50° SSW 22:29:23 75° ESE 22:35:41 10° NE
Cosmos 1900 4.2 22:33:47 70° S 22:34:19 80° SE 22:39:24 10° NE
CZ-4C R/B 4.3 22:28:42 10° WNW 22:34:24 24° WSW 22:36:28 21° SW
Gbstr 26 Del rocket 3.9 22:29:14 10° WNW 22:36:30 89° NNE 22:40:00 27° ESE
ERBS 3.6 22:34:30 10° NW 22:37:05 39° N 22:37:05 39° N
Cosmos 858 Rocket 4.4 22:37:14 60° SW 22:38:12 81° WNW 22:43:28 10° NNE
Nimbus 7 Rocket 4.4 22:32:20 10° NNE 22:38:13 69° ESE 22:39:29 54° SSE
Cosmos 2218 Rocket 4.1 22:34:10 10° NNW 22:40:22 67° W 22:42:06 48° SSW
Meteor 1-19 Rocket 4.1 22:40:49 55° SW 22:41:57 74° WNW 22:47:22 10° N
Okean 1 4.1 22:46:34 42° WNW 22:46:38 42° WNW 22:50:27 10° N
Cosmos 489 Rocket 4.5 22:41:44 10° NNW 22:47:56 69° WSW 22:49:22 52° SSW
Cosmos 1461 3.4 22:53:28 54° E 22:53:28 54° E 22:57:37 10° NE
Cosmos 2278 Rocket 4.3 22:49:56 10° W 22:54:21 23° NW 22:58:46 10° N
Cosmos 1703 Rocket 3.5 22:57:18 74° E 22:57:18 74° E 23:01:38 10° NNE
Cosmos 1862 Rocket 4.3 22:57:00 40° W 22:57:22 40° WNW 23:01:29 10° N
Cosmos 1782 Rocket 3.6 22:54:38 10° N 22:59:07 69° E 22:59:17 68° E
Cosmos 1898 Rocket 4.5 22:57:38 29° WSW 22:59:47 42° WNW 23:04:51 10° NNE
Nadezhda 3 Rocket 4.0 23:02:11 49° SSE 23:03:50 69° E 23:10:02 10° NNE
Cosmos 1378 4.1 23:04:38 40° ENE 23:04:38 40° ENE 23:07:33 10° NNE
Cosmos 2369 Rocket 2.1 23:03:27 60° S 23:04:21 72° ESE 23:10:00 10° NNE
Cosmos 2150 Rocket 4.4 23:04:47 46° SE 23:05:20 48° ESE 23:10:27 10° NNE
COBE Rocket 4.3 23:07:04 47° WSW 23:07:31 48° W 23:12:29 10° NNW
RESURS DK-1 2.7 23:05:29 10° NNW 23:09:37 59° ENE 23:09:53 58° ENE
Meteor 1-13 Rocket 4.4 23:09:32 51° SE 23:10:35 60° E 23:16:02 10° NNE
Gblst 52 Del rocket 4.3 23:04:17 10° WNW 23:11:02 82° SSW 23:14:42 25° ESE
Meteor 1-12 Rocket 4.3 23:05:39 10° N 23:11:36 78° ENE 23:13:07 51° SSE
Cosmos 1975 4.1 23:09:08 10° NNW 23:12:12 30° WNW 23:12:12 30° WNW
Cosmos 1943 Rocket 2.6 23:11:55 38° WSW 23:13:50 58° WNW 23:19:23 10° NNE
SL-27 R/B 3.6 23:10:44 10° NNW 23:13:17 40° NNE 23:13:17 40° NNE
Cosmos 1805 4.2 23:10:45 10° N 23:14:27 39° ENE 23:14:33 39° E
Cosmos 2084 Rocket 4.5 23:10:26 10° NW 23:13:20 35° W 23:13:20 35° W
ALOS 2 4.0 23:16:05 27° W 23:16:05 27° W 23:19:37 10° NW
Cosmos 1733 4.4 23:13:06 10° N 23:16:33 33° ENE 23:16:42 32° ENE
PSLV R/B 3.5 23:13:55 10° NNE 23:18:22 71° ESE 23:18:26 71° ESE
Cosmos 1867 3.8 23:18:57 50° SE 23:19:22 52° ESE 23:24:41 10° NE
Cosmos 1607 4.2 23:19:25 48° SSE 23:20:47 58° ESE 23:27:09 10° NE
DNEPR-1 R/B 4.3 23:19:56 37° WSW 23:21:59 62° NW 23:26:50 10° NE
Meteor 2-4 Rocket 4.0 23:20:31 46° SW 23:22:00 61° WNW 23:27:38 10° N
Cosmos 468 4.4 23:17:45 10° NNW 23:23:03 80° WSW 23:23:50 64° S
Cosmos 2263 4.2 23:22:37 57° S 23:23:47 75° ESE 23:29:35 10° NNE
EO 1 Del DPAF 3.4 23:24:20 10° NNE 23:27:38 67° NNE 23:27:38 67° NNE
Cosmos 1066 Rocket 4.4 23:26:44 50° SSE 23:28:07 66° E 23:33:46 10° NNE
Okean 3 3.4 23:28:08 81° E 23:28:08 81° E 23:32:25 10° NNE
Okean 1-7 3.3 23:30:15 52° W 23:30:21 52° WNW 23:34:33 10° N
ATLAS CENTAUR R/B 2.6 23:33:01 27° E 23:33:01 27° E 23:35:21 10° NE
Helios 1A 3.4 23:31:38 49° E 23:32:11 54° ENE 23:36:15 10° N
Sich 1 Rocket 3.5 23:30:32 10° N 23:35:08 81° E 23:35:34 71° SE
Cosmos 1125 Rocket 3.5 23:35:51 58° SSE 23:36:40 69° ESE 23:41:52 10° NNE
SeaSat 1 2.6 23:32:15 10° NNE 23:37:11 69° WNW 23:38:19 51° WSW
Cosmos 494 Rocket 3.8 23:34:12 10° NNW 23:39:25 78° WSW 23:40:14 62° S
Cosmos 1656 Rocket 3.5 23:39:04 58° SSW 23:40:12 86° ESE 23:45:46 10° NNE
Cosmos 2242 Rocket 4.4 23:40:22 38° W 23:40:46 39° WNW 23:44:58 10° N
USA 81 4.4 23:35:33 10° N 23:40:47 58° E 23:42:24 41° SE
USA 215 3.5 23:42:21 44° SSW 23:43:13 46° SW 23:49:29 10° WNW
Cosmos 1833 4.2 23:40:39 10° NNW 23:46:22 66° WSW 23:47:33 53° SSW
ATLAS 2AS CENTAUR R/B 4.0 23:42:34 10° WNW 23:47:41 21° WSW 23:47:56 21° WSW
CZ-2D R/B 3.5 23:47:08 10° NNE 23:51:53 30° E 23:53:56 23° SE
Cosmos 2297 Rocket 4.2 23:48:15 10° NNW 23:52:59 26° NE 23:57:40 10° E
